GFSSW_850_rhum_162.txt.gz
RH
79 81 82 79 79 77 74 70 68 64 62 58 55 50 50 45 40 33 22 18 14 6 8 11 9 9 8 7 8 7 10 12 10 10 10 9 9 12 16 21 27 33 38 43 45
84 82 84 84 83 78 76 75 73 68 64 57 52 46 46 46 40 35 18 14 8 6 9 14 12 9 8 7 8 8 10 10 8 9 8 8 8 12 15 20 26 32 35 37 37
87 85 84 86 83 77 75 71 72 66 60 58 52 43 26 43 49 21 20 31 22 10 9 14 13 11 8 8 8 8 10 8 8 10 8 7 7 9 12 15 21 26 31 33 33
87 86 87 88 83 79 75 72 70 70 65 62 39 29 15 38 34 22 28 39 28 23 18 14 14 14 12 10 8 9 8 7 7 8 8 7 7 9 21 22 23 26 29 31 32
85 90 89 92 93 86 80 74 73 73 71 46 26 23 16 39 28 29 36 40 25 20 18 18 16 14 15 13 11 12 10 8 7 9 9 9 9 11 23 27 29 30 30 31 33
84 85 91 89 99 91 84 80 77 73 65 30 29 22 50 30 31 34 32 40 25 22 20 19 19 18 18 16 16 14 12 11 10 8 9 10 9 14 21 28 28 29 29 31 32
96 99 93 97 94 91 78 76 71 60 36 23 28 29 64 36 26 32 31 33 28 25 23 21 21 20 19 18 15 14 16 15 14 11 10 10 12 14 20 27 25 25 27 31 36
97 100 95 89 86 83 72 63 53 38 23 23 22 32 56 27 30 30 29 36 29 26 24 23 22 22 20 19 18 18 16 21 14 13 10 12 17 14 25 24 23 24 27 32 35
98 95 92 85 73 64 60 55 45 30 23 23 24 64 47 38 36 30 28 27 25 23 24 23 22 22 19 19 20 17 21 16 14 11 10 11 15 22 24 24 22 23 27 31 36
86 84 76 62 68 58 46 43 31 21 28 54 65 45 39 26 30 30 27 26 24 24 24 23 22 22 20 20 24 16 15 14 14 11 11 12 14 21 24 23 21 22 24 29 34
86 52 50 43 47 43 42 52 67 90 85 39 33 34 28 27 25 23 21 25 22 21 22 18 22 23 19 17 16 16 16 16 12 10 12 13 13 11 22 23 23 23 25 28 31
57 52 44 35 42 41 40 62 45 64 50 39 36 29 26 29 36 24 18 18 16 21 15 19 24 19 15 18 21 21 23 23 17 13 14 15 16 13 14 22 22 23 25 28 32
48 41 45 47 38 38 41 59 55 57 39 20 17 18 23 21 23 25 22 22 17 17 18 19 16 17 22 23 24 24 26 25 24 19 18 18 18 17 13 17 22 22 24 27 31
50 47 41 42 40 37 71 60 63 59 50 18 22 23 24 26 26 24 24 17 18 19 17 18 16 17 20 23 25 32 21 18 20 25 32 19 30 19 15 16 22 23 24 26 30
98 63 46 36 82 55 55 60 62 49 47 19 24 37 35 27 29 26 28 21 22 20 20 24 20 23 27 23 18 20 19 22 26 28 30 25 27 20 15 16 23 24 25 28 35
100 89 48 49 74 76 71 64 63 72 52 22 28 27 37 32 29 30 30 28 23 22 18 19 18 18 20 21 21 19 24 25 25 28 43 28 26 25 20 19 22 24 26 32 39
97 94 74 92 73 78 55 70 71 55 12 18 29 27 29 32 26 24 27 27 25 30 28 21 20 17 18 22 21 22 30 44 39 37 42 20 20 20 17 28 26 28 29 36 44
90 98 84 98 99 67 72 70 70 17 18 13 20 28 32 25 26 19 16 21 19 18 18 21 24 14 14 22 26 21 23 39 44 41 32 17 22 15 33 30 26 26 35 43 48
88 92 88 87 78 58 92 88 28 21 12 16 21 29 27 21 18 19 16 15 10 10 22 19 16 12 16 16 14 18 24 16 26 25 33 24 17 12 25 35 40 43 47 48 50
80 98 96 86 81 87 86 59 33 15 19 17 22 23 25 23 21 16 17 11 12 11 12 17 24 14 14 15 16 18 16 27 25 43 42 27 22 30 40 43 44 66 60 54 55
91 95 78 85 84 92 92 51 30 18 21 22 21 20 16 16 16 17 17 10 13 13 15 16 21 22 16 18 18 15 17 19 20 28 41 44 41 44 43 42 47 60 65 60 61
100 86 90 75 94 69 78 41 30 21 23 25 23 16 13 10 11 12 12 10 13 13 18 13 21 29 19 14 13 14 17 18 33 33 35 46 59 32 44 44 40 55 67 65 70
84 90 98 87 87 71 44 41 29 27 21 18 18 15 14 15 18 16 16 12 14 17 24 23 25 36 26 19 16 19 17 17 21 26 37 54 52 36 43 41 40 58 81 77 88
89 99 92 98 62 42 43 39 35 32 27 21 18 16 20 18 18 19 19 15 20 20 26 26 31 35 51 33 22 25 19 16 21 55 59 55 59 66 95 80 49 70 80 91 97
74 76 68 93 85 52 36 32 33 39 34 26 25 26 23 30 24 24 19 18 20 23 26 30 38 32 31 27 26 27 24 21 22 23 30 30 27 28 68 96 98 76 81 92 97
91 65 50 36 54 60 54 42 33 31 35 37 33 24 25 28 25 25 24 26 29 31 32 35 55 43 46 34 31 34 27 25 22 19 19 21 22 21 50 70 85 88 84 90 97
73 56 45 45 58 70 67 41 32 31 27 27 27 29 28 27 38 42 45 44 46 46 44 43 46 53 63 38 42 66 50 34 29 26 29 34 35 34 52 59 70 80 90 100 97

GFSSW_850_rhum_165.txt.gz
RH
76 80 80 79 82 78 76 73 72 66 60 55 46 41 36 22 22 34 38 19 16 14 11 10 12 10 8 8 7 8 13 17 14 14 12 9 12 18 22 29 36 46 50 57 46
82 84 82 80 81 78 74 68 68 64 58 53 44 36 23 13 19 33 23 22 30 18 8 12 13 13 12 8 8 9 17 13 10 11 10 10 11 16 22 27 36 39 44 48 44
85 86 85 82 84 80 78 72 67 68 62 54 44 26 10 16 35 25 18 26 38 27 15 14 14 14 13 12 9 10 14 11 9 9 8 9 13 14 22 25 29 36 38 38 37
88 89 88 87 86 84 77 75 68 67 68 62 33 14 7 28 51 25 27 33 39 21 19 18 17 16 17 18 13 10 9 10 7 9 9 10 10 26 24 27 27 32 35 34 33
87 89 88 89 94 87 87 84 71 68 67 49 25 13 8 18 23 30 31 30 37 21 20 19 20 19 23 20 18 17 16 13 9 8 9 9 14 27 28 27 28 30 31 32 32
85 90 87 88 92 90 89 85 76 57 51 35 25 16 14 38 27 31 31 30 32 24 22 21 20 21 20 21 22 16 15 15 14 14 9 10 15 19 29 28 28 29 31 32 34
99 95 93 98 98 90 91 81 61 48 43 31 26 29 20 6 15 28 30 31 32 28 26 24 21 22 21 24 20 18 20 18 17 16 16 10 14 17 26 25 28 30 30 32 36
100 100 100 100 100 93 86 69 55 46 36 21 25 31 27 10 24 22 30 27 36 33 26 24 23 23 23 21 20 23 24 30 20 18 16 12 21 24 25 26 27 27 30 33 35
100 100 100 100 96 80 63 57 48 32 22 22 23 61 54 36 34 31 31 28 27 29 23 24 23 22 23 27 30 26 36 29 23 16 15 15 20 31 27 25 25 26 29 33 36
92 76 78 71 75 67 57 49 30 23 30 52 53 57 28 18 27 30 31 27 26 24 24 24 24 29 33 34 43 31 25 21 19 15 15 15 17 30 26 24 25 25 28 32 36
79 77 80 62 48 43 46 33 39 59 76 44 47 24 30 29 25 25 19 25 25 22 29 22 34 40 34 30 26 24 22 24 24 18 13 16 18 32 28 25 24 25 28 30 35
65 69 69 55 46 41 45 40 44 60 62 48 47 56 34 32 31 31 25 19 20 31 24 28 32 26 22 22 26 28 30 32 27 22 22 23 22 17 29 26 25 25 27 29 39
69 66 64 50 46 31 36 32 51 65 57 39 19 20 25 26 25 25 25 18 20 24 24 28 23 18 21 26 29 31 32 31 32 24 24 26 28 23 18 23 25 25 24 29 39
86 69 68 56 45 64 39 34 66 62 84 38 23 19 17 19 25 22 20 22 25 27 25 24 18 19 24 26 25 34 26 24 28 36 46 27 43 27 21 19 26 26 26 31 40
92 87 71 52 64 70 71 68 65 44 69 23 25 30 23 25 26 26 25 23 30 25 21 34 26 27 29 27 22 27 25 27 30 37 40 31 34 24 20 21 30 28 27 31 41
96 96 74 54 74 79 77 67 49 93 93 27 32 35 38 30 28 31 30 28 24 25 26 28 19 21 23 22 23 23 27 31 32 36 61 35 36 35 27 27 27 28 32 40 43
90 92 72 58 88 76 77 56 94 99 23 20 37 29 39 42 36 30 34 35 35 38 40 28 25 19 18 26 22 24 33 60 61 60 62 29 33 31 41 44 38 34 45 46 48
87 92 80 72 92 81 65 89 98 39 23 14 21 31 42 34 36 29 32 36 30 28 29 27 36 22 20 26 32 32 34 60 61 57 47 24 33 24 51 50 51 54 56 52 50
91 84 88 68 88 79 83 98 64 35 19 22 17 38 40 31 28 33 25 25 19 24 31 26 24 17 18 17 20 20 30 24 34 35 50 34 26 38 50 53 55 54 52 54 51
86 86 87 75 85 76 98 60 49 23 18 23 30 31 40 32 26 19 21 16 16 14 16 19 30 19 17 18 18 20 21 34 40 52 51 43 34 38 59 64 64 68 57 54 53
93 89 74 76 80 91 90 72 34 27 19 31 34 33 26 28 26 32 26 15 14 16 16 20 29 31 19 23 25 23 30 30 30 50 50 47 64 64 60 59 68 68 54 54 56
88 99 85 87 98 85 84 48 31 27 22 29 26 30 29 20 20 18 23 17 12 16 22 26 30 38 30 22 19 20 25 26 60 45 61 69 61 39 59 56 57 68 57 54 56
95 87 96 92 96 93 63 51 40 37 28 24 24 20 23 26 26 22 22 16 17 19 31 30 42 70 46 29 21 23 23 23 30 39 45 72 60 53 48 51 53 69 64 64 67
98 100 99 100 82 68 68 59 52 35 32 31 24 25 28 26 24 25 24 18 21 31 25 26 37 49 74 52 36 38 29 26 28 57 56 47 70 56 65 74 63 76 70 72 73
99 100 85 97 92 83 71 50 50 46 34 30 34 39 33 36 34 32 30 28 23 31 28 36 47 40 36 30 36 40 38 34 38 38 46 39 36 42 51 66 82 79 86 88 89
99 99 64 59 65 79 75 61 47 41 42 42 47 37 32 49 38 34 37 38 37 39 39 44 60 52 56 46 44 48 40 36 34 33 33 36 31 27 65 75 99 86 91 99 98
99 84 77 56 71 81 73 62 47 42 55 44 41 44 46 40 49 53 48 47 49 55 59 56 63 68 70 48 58 72 57 51 45 39 41 47 41 39 72 86 93 92 92 94 90

GFSSW_850_rhum_168.txt.gz
RH
75 79 81 80 79 76 75 72 66 63 60 54 46 38 28 14 7 14 32 21 32 31 13 12 13 12 11 9 8 7 16 17 13 14 14 12 18 24 29 35 48 50 62 61 58
78 85 84 83 82 79 78 75 69 65 62 55 44 35 23 7 10 33 30 23 32 36 21 16 16 14 14 12 10 10 18 14 11 11 11 11 14 21 26 36 46 58 62 54 52
85 89 87 85 86 78 81 75 74 69 66 57 40 30 18 6 25 21 20 22 34 37 23 18 19 18 15 15 12 12 15 12 10 9 9 11 18 19 24 29 38 50 48 53 49
88 90 89 88 85 86 82 81 77 75 70 49 38 30 21 9 25 28 30 30 30 26 20 21 20 19 19 20 17 17 14 14 11 9 8 10 18 27 27 26 28 44 45 47 45
86 86 86 90 89 83 88 85 79 77 60 45 40 26 22 13 9 28 32 28 30 25 23 23 21 21 26 22 21 19 17 16 15 14 9 11 22 29 33 32 36 37 36 34 33
78 81 89 93 95 92 84 82 84 74 55 50 42 22 20 27 21 31 31 30 29 30 24 25 23 21 22 23 24 20 18 17 15 15 16 23 31 22 31 33 34 34 34 34 33
90 90 94 99 100 99 98 79 86 62 53 44 34 23 31 22 10 21 27 29 29 33 31 29 24 24 24 26 22 21 24 24 20 18 18 11 26 23 27 29 30 30 31 32 32
100 92 97 88 91 98 99 85 70 55 54 31 28 23 31 19 17 17 20 23 29 36 37 25 24 23 24 24 21 23 26 31 23 19 18 13 22 22 29 29 30 31 32 31 33
99 98 99 99 87 87 83 76 62 43 39 26 23 43 36 24 29 33 30 31 29 27 33 23 24 24 24 31 36 31 34 32 28 19 20 18 21 30 30 29 31 31 32 34 38
88 85 74 82 73 65 46 28 22 25 44 60 56 57 27 30 22 33 30 29 27 26 25 24 25 31 35 40 47 36 31 27 25 18 15 15 22 36 32 29 30 32 32 34 37
79 72 69 71 59 54 54 38 31 53 52 61 58 47 37 30 32 27 27 22 26 26 31 25 36 43 36 34 31 31 33 29 25 23 22 17 18 36 33 30 30 31 34 36 40
77 78 74 68 63 59 56 33 39 58 66 47 44 48 40 38 56 30 29 26 23 33 27 32 38 30 29 29 32 33 34 37 31 24 23 27 29 22 35 30 28 29 34 39 46
71 61 71 73 60 54 36 33 39 52 66 51 36 34 20 15 46 36 29 26 21 24 26 37 29 22 25 25 28 32 35 35 32 30 26 29 33 25 26 29 28 28 30 40 44
86 80 67 68 70 50 53 51 57 64 56 37 26 24 21 22 23 21 23 25 26 28 29 32 24 21 23 28 27 33 27 27 31 38 44 29 52 30 24 27 28 28 32 43 50
87 79 80 64 51 66 68 69 65 43 50 20 24 24 24 19 26 26 25 23 28 31 27 36 26 25 28 29 23 30 27 30 30 36 39 37 41 29 22 22 25 30 42 52 54
79 88 81 70 50 77 70 69 51 83 76 36 32 33 30 27 27 31 28 29 27 31 30 32 23 22 25 23 24 24 30 35 37 41 63 38 38 44 38 49 43 48 50 54 54
84 87 90 78 54 79 76 63 71 95 34 27 40 35 44 45 41 35 37 38 39 41 44 32 29 25 20 24 24 25 39 60 60 66 58 34 35 39 59 60 51 58 58 57 54
90 88 89 80 76 79 73 80 79 39 31 18 18 30 51 45 44 40 39 45 36 33 38 41 34 23 22 27 30 34 40 62 67 65 52 25 33 34 60 60 62 61 60 57 56
87 87 90 82 89 83 68 99 60 48 26 25 24 29 46 39 45 37 42 41 32 34 37 31 28 18 20 22 27 29 36 34 44 41 54 40 34 56 58 62 61 58 56 54 52
81 84 80 74 98 92 95 66 59 38 20 25 32 33 49 41 31 44 27 20 18 20 20 23 30 22 20 18 18 22 22 31 44 46 51 44 38 42 68 70 66 70 58 51 52
95 85 64 80 97 99 96 79 46 31 29 31 36 37 36 27 29 31 27 18 14 17 17 20 31 31 18 23 27 26 30 31 36 58 57 56 62 58 64 64 68 65 62 51 52
100 99 77 80 98 81 88 65 38 35 28 30 28 34 38 31 30 24 29 20 16 18 24 26 35 39 27 22 21 23 27 30 59 41 65 75 54 44 60 61 60 58 52 55 52
100 93 84 88 90 94 68 62 48 45 38 30 32 25 24 26 26 25 22 21 14 28 31 27 41 66 38 30 33 28 26 28 35 48 52 72 71 57 58 60 52 58 54 58 60
98 100 83 100 85 77 76 68 69 41 37 38 29 27 29 28 26 29 26 23 24 29 26 28 41 48 56 44 42 43 35 32 35 68 56 60 60 63 59 59 56 53 62 63 64
99 99 98 99 99 89 81 69 60 62 42 33 36 37 39 40 32 36 29 27 28 28 30 34 42 44 43 39 38 40 37 38 48 49 57 48 51 46 54 59 34 43 75 80 81
98 99 100 99 80 98 96 94 71 57 46 42 43 38 39 49 38 34 42 43 36 48 40 43 48 45 45 44 48 56 50 48 46 45 45 48 45 38 34 61 67 63 81 93 98
99 85 100 88 80 91 86 82 69 53 54 56 52 45 54 55 41 42 46 48 51 56 60 58 64 74 73 55 64 74 64 54 48 43 48 59 49 45 63 87 73 77 82 80 95

GFSSW_850_rhum_171.txt.gz
RH
65 72 75 78 76 76 76 74 70 70 63 56 49 38 32 26 18 21 26 24 29 36 29 15 15 15 13 10 8 9 17 17 13 14 14 14 20 28 34 42 51 52 62 66 74
60 70 76 82 80 78 75 75 74 69 69 59 50 38 34 29 17 31 27 23 28 33 28 19 18 18 16 13 12 12 18 14 12 12 11 14 18 27 34 46 59 60 61 71 63
63 74 80 83 82 81 77 73 74 73 70 61 48 40 38 32 17 24 26 29 30 31 22 21 20 19 18 17 17 13 15 13 11 10 10 12 21 23 29 31 52 65 66 60 53
64 79 81 83 80 80 79 72 74 78 78 64 48 46 41 33 20 12 31 32 27 30 23 21 21 21 24 26 22 24 15 16 13 10 10 10 21 28 28 24 33 57 56 53 48
65 71 74 74 78 80 76 74 71 75 79 65 50 47 40 33 27 16 26 29 28 32 25 24 22 22 26 26 24 22 19 18 17 16 10 12 20 25 34 31 44 55 53 51 46
76 76 75 79 80 75 72 73 73 74 78 60 52 48 33 35 25 23 26 27 27 28 29 28 26 24 24 26 28 24 23 23 20 18 17 20 27 25 36 42 48 48 49 48 46
87 91 94 93 94 90 81 84 73 75 71 56 53 39 30 27 19 15 16 25 28 29 35 30 25 24 24 29 25 23 26 26 23 21 20 21 32 30 30 39 39 41 43 45 41
99 99 99 99 87 86 82 90 85 74 69 44 40 30 27 25 21 23 19 22 22 25 33 35 24 24 24 26 26 26 28 33 24 20 19 15 28 28 30 36 36 35 35 35 38
96 95 96 99 92 89 88 82 76 63 36 31 34 35 29 22 22 27 30 28 28 28 28 33 24 25 26 34 40 36 36 33 29 20 21 18 26 23 32 35 35 34 35 36 40
91 96 95 87 83 82 74 65 48 29 30 47 61 54 33 30 31 26 32 30 29 26 27 26 26 35 38 43 47 40 34 32 33 23 17 18 22 34 36 35 34 36 36 38 42
79 78 81 79 66 58 53 40 31 42 54 43 54 44 31 29 30 28 29 30 23 27 32 28 38 43 38 36 34 36 37 40 34 24 25 22 22 21 36 35 34 34 37 42 47
68 67 67 69 71 71 68 39 44 57 60 42 35 41 32 39 44 29 32 34 27 33 30 33 41 33 32 33 37 38 42 44 35 26 24 28 31 29 40 34 32 31 38 44 51
61 58 64 61 70 58 61 46 52 39 56 51 34 39 32 31 55 35 33 29 25 28 31 40 32 26 27 29 31 32 42 40 35 29 28 32 37 31 29 32 29 30 33 40 45
72 79 77 82 76 71 55 51 55 53 61 40 27 31 32 31 28 19 26 31 28 30 27 32 27 28 27 29 28 39 29 27 32 33 45 31 48 31 27 31 34 32 33 38 48
80 83 84 84 59 64 67 62 62 37 65 27 25 28 26 23 26 28 29 32 35 33 32 39 28 26 28 28 30 35 29 31 32 38 41 38 42 31 25 24 31 41 38 47 52
80 79 83 79 69 70 71 68 58 66 53 30 32 31 28 27 27 32 29 27 26 33 33 34 26 26 27 24 24 25 30 38 43 44 61 42 43 46 38 44 51 52 57 63 67
84 87 93 84 65 71 69 65 70 68 32 33 38 35 42 40 38 34 37 39 41 44 48 35 34 28 24 30 24 28 38 56 48 58 55 39 37 43 51 63 66 58 64 68 67
86 88 93 83 70 72 73 68 78 50 41 25 22 24 40 46 49 42 42 48 40 34 41 48 41 32 27 30 30 36 39 56 58 68 55 35 40 31 64 64 63 62 63 67 66
83 85 85 84 73 86 72 87 70 50 36 28 26 27 36 43 49 46 49 47 37 37 45 40 34 20 22 24 27 36 45 35 48 47 60 42 38 59 62 65 63 64 63 65 63
86 86 74 70 77 98 92 79 66 50 33 28 30 27 44 46 51 50 46 33 36 31 28 28 32 23 19 19 20 27 28 37 48 46 56 45 40 44 74 71 69 71 66 62 60
99 85 68 70 86 99 93 70 60 46 36 37 34 39 34 34 32 34 33 23 20 19 24 24 32 27 20 22 27 28 31 36 38 55 56 66 62 49 64 66 71 69 62 55 53
100 97 81 87 93 77 79 76 54 42 34 36 36 37 36 31 29 27 32 32 22 20 23 26 36 35 26 21 24 22 26 31 59 42 66 78 72 43 60 64 63 62 52 53 54
99 93 92 90 87 86 82 72 62 53 46 37 35 35 29 28 34 32 25 22 22 24 26 25 40 60 33 23 33 33 28 34 39 52 51 70 59 49 60 62 57 54 49 51 54
98 99 99 100 87 75 80 76 74 55 50 44 45 40 32 32 30 31 30 29 20 28 26 30 44 40 53 35 43 43 37 31 38 71 59 60 58 59 60 68 53 46 46 54 58
100 98 90 98 99 97 76 71 67 67 49 44 34 40 42 45 38 38 32 28 31 24 32 34 39 42 47 40 42 40 37 38 47 47 56 45 50 42 61 62 47 33 36 58 69
89 99 99 98 92 98 99 98 76 68 57 54 52 39 40 44 39 36 42 41 35 47 39 44 42 42 42 40 48 57 49 52 52 53 54 54 54 44 38 39 43 39 60 74 73
98 88 99 86 88 96 84 83 73 65 68 56 57 63 52 52 41 36 42 46 47 57 62 62 58 72 52 52 62 75 63 54 48 46 52 60 48 48 54 58 65 52 55 58 74

GFSSW_850_rhum_174.txt.gz
RH
56 61 68 69 70 70 70 65 62 60 56 52 47 44 41 37 30 32 26 25 25 30 30 24 18 16 14 12 10 9 17 18 14 15 14 18 21 32 36 46 49 55 60 61 80
50 54 62 67 68 70 70 65 63 63 61 54 52 43 43 38 32 24 25 25 25 26 26 22 20 17 15 16 14 13 18 15 12 12 12 14 20 33 42 54 60 60 64 68 79
51 54 60 63 67 69 67 66 69 66 63 61 55 50 44 39 30 25 23 29 21 19 27 23 22 20 19 18 21 18 15 12 12 12 11 18 23 25 38 41 50 54 61 77 79
52 59 68 65 63 60 66 72 74 67 68 66 59 52 46 40 40 29 15 26 27 22 28 24 22 22 25 25 24 24 17 19 17 18 13 12 22 26 29 21 23 44 51 73 70
64 62 70 75 67 67 74 78 72 68 68 67 66 53 47 42 33 27 19 25 27 24 26 28 25 24 27 27 26 25 22 21 20 20 17 14 24 26 27 26 28 52 64 66 58
83 83 81 78 79 78 77 73 78 75 77 69 67 57 48 41 33 24 18 16 27 27 25 32 28 25 25 27 28 26 26 25 22 21 17 16 26 24 27 32 48 58 61 57 52
95 94 91 93 89 84 80 81 78 76 76 73 65 48 45 39 29 25 24 20 15 27 27 34 32 25 25 30 28 26 28 27 24 23 25 21 24 29 25 43 57 60 59 57 52
99 99 99 99 95 86 85 86 79 82 74 69 50 36 42 39 26 28 28 21 19 24 25 33 32 25 25 26 29 29 30 34 25 25 22 20 32 24 30 46 53 55 56 56 53
100 100 95 91 89 90 85 83 82 74 63 41 30 38 43 33 24 25 30 28 27 26 28 28 30 26 27 36 45 42 41 32 31 24 21 18 25 22 30 43 46 48 49 53 53
98 96 86 85 85 78 63 60 50 54 44 43 54 64 42 35 29 26 27 31 28 25 26 30 27 36 40 44 31 37 37 37 39 30 27 23 26 26 37 40 41 42 43 44 44
84 80 76 74 75 69 58 56 43 48 48 44 47 48 37 35 36 33 32 30 27 26 34 30 40 46 37 39 34 36 40 42 39 32 28 30 31 28 37 38 38 38 40 43 47
86 78 68 66 64 60 59 52 46 57 73 42 38 46 42 42 45 42 35 39 30 36 32 35 46 35 33 34 38 40 43 44 39 35 28 30 34 31 43 39 34 35 40 44 51
70 66 66 60 60 55 57 58 61 58 60 40 37 46 36 38 53 41 34 36 30 33 36 40 28 29 31 31 34 35 39 38 40 30 30 33 39 32 30 35 32 34 33 38 41
68 67 70 68 67 62 65 66 62 53 62 46 29 33 34 38 38 23 34 33 29 38 32 34 28 30 29 33 30 37 31 37 33 35 46 32 48 32 31 30 32 37 35 36 42
71 69 73 77 68 57 68 67 57 36 68 30 23 31 28 26 25 32 33 36 38 32 30 39 30 30 33 31 28 34 33 34 34 38 41 39 44 33 26 24 32 45 41 47 53
75 72 70 77 74 69 71 67 54 65 56 30 34 35 29 26 26 32 31 29 29 36 34 37 27 26 29 26 26 29 30 38 46 46 63 45 40 42 38 38 48 54 54 53 60
79 72 67 78 74 64 72 60 69 71 32 33 33 26 34 42 37 33 37 40 40 43 47 40 38 32 27 34 28 29 39 59 53 64 58 42 48 41 43 59 63 69 64 66 64
82 77 73 73 74 66 74 73 81 51 41 31 25 26 27 39 43 44 42 52 41 37 44 47 50 35 30 35 35 40 42 62 60 61 52 37 46 33 59 63 62 64 64 68 67
80 80 75 68 76 73 79 96 77 58 36 33 28 27 40 40 48 48 50 51 45 40 48 47 39 22 24 25 30 38 47 34 46 48 62 48 36 44 63 62 62 66 69 70 69
78 85 74 70 83 88 94 78 73 50 40 36 30 26 37 40 46 52 52 38 41 39 33 38 41 24 21 21 22 32 32 43 50 51 58 47 42 44 56 61 67 73 67 66 68
89 87 72 68 78 96 94 81 64 49 50 40 40 40 38 37 28 37 40 34 30 26 35 34 34 34 21 23 27 29 32 36 42 50 52 67 61 50 41 56 63 65 54 54 59
100 98 78 76 91 87 85 65 62 51 48 39 39 42 42 38 38 34 42 32 26 29 37 31 37 36 28 26 26 22 28 35 52 60 66 81 72 43 67 58 60 56 46 47 51
98 98 99 89 95 90 69 76 67 60 51 48 46 48 35 37 40 40 32 25 22 36 48 44 48 59 34 24 34 39 36 36 47 52 48 68 60 45 54 53 51 52 46 47 49
98 99 100 100 88 75 74 80 78 61 63 56 52 42 42 38 32 38 32 30 28 26 28 37 47 47 54 42 43 39 38 35 38 70 57 51 54 45 54 56 46 53 44 47 51
99 99 89 98 98 90 76 75 76 74 57 53 48 48 44 51 46 44 34 31 30 35 40 40 50 49 41 35 47 42 38 39 45 45 50 38 43 38 55 58 41 30 32 40 49
97 99 100 96 98 98 96 96 81 73 61 60 61 58 60 54 45 41 42 38 43 46 40 45 51 44 46 39 47 48 45 49 49 48 51 53 56 45 41 41 45 40 38 42 44
100 96 90 86 88 98 88 86 83 73 66 58 62 69 75 65 60 56 47 37 41 53 60 63 57 62 55 48 57 78 67 56 53 61 57 65 50 51 54 55 53 47 50 52 55